Weather History for Randolph AFB, TX

Change the Weather History Date:

Tuesday, February 25, 2014

  Actual Average Record
Temperature  
Mean Temperature 65 °F -  
Max Temperature 75 °F 64 °F 90 °F (2008)
Min Temperature 54 °F 45 °F 26 °F (2003)
Growing Degree Days 15 (Base 50)    
Moisture  
Dew Point 60 °F    
Average Humidity 84    
Maximum Humidity 94    
Minimum Humidity 63    
Precipitation  
Precipitation 0.00 in - - ()
Sea Level Pressure  
Sea Level Pressure 29.98 in    
Wind  
Wind Speed 6 mph (ESE)    
Max Wind Speed 14 mph    
Max Gust Speed -    
Visibility 9 miles    
Events Rain    
Averages and records for this station are not official NWS values.
T = Trace of Precipitation, MM = Missing Value Source: NWS Daily Summary

Daily Weather History Graph

Daily Weather History Graph

Search for Another Location

Airport:

Trip Planner

Search our weather history database for the weather conditions in past years. The results will help you decide how hot, cold, wet, or windy it might be!

Date:

Astronomy

Feb. 25, 2014 Rise Set
Actual Time 7:02 AM CST 6:29 PM CST
Civil Twilight 6:38 AM CST 6:53 PM CST
Nautical Twilight 6:11 AM CST 7:21 PM CST
Astronomical Twilight 5:43 AM CST 7:49 PM CST
Moon 3:46 AM CST (2/25) 2:48 PM CST (2/25)
Length of Visible Light 12h 14m
Length of Day
11h 26m
Waning Crescent, 18% of the Moon is Illuminated
Feb 25
Waning Crescent
Mar 1
New
Mar 8
First Quarter
Mar 16
Full
Mar 23
Last Quarter

Hourly Weather History & Observations

Time (CST) Temp. Dew Point Humidity Pressure Visibility Wind Dir Wind Speed Gust Speed Precip Events Conditions
12:14 AM 64.4 °F 60.8 °F 88% 30.01 in 10.0 mi SE 2.3 mph - N/A   Partly Cloudy
12:24 AM 64.4 °F 60.8 °F 88% 30.01 in 10.0 mi ESE 2.3 mph - N/A   Mostly Cloudy
12:58 AM 64.8 °F 60.8 °F 87% 29.99 in 10.0 mi ESE 2.3 mph - N/A   Overcast
1:18 AM 64.4 °F 60.8 °F 88% 29.99 in 10.0 mi East 2.3 mph - N/A   Overcast
1:53 AM 66.2 °F 62.6 °F 88% 29.99 in 10.0 mi SE 4.6 mph - N/A   Overcast
1:58 AM 65.7 °F 62.2 °F 89% 29.98 in 9.0 mi SE 4.6 mph - N/A   Overcast
2:38 AM 66.2 °F 62.6 °F 88% 29.99 in 10.0 mi SSE 5.8 mph - N/A   Overcast
2:58 AM 66.4 °F 63.5 °F 90% 29.96 in 10.0 mi SSE 5.8 mph - N/A   Scattered Clouds
3:08 AM 66.2 °F 64.4 °F 94% 29.98 in 10.0 mi SSE 6.9 mph - N/A   Mostly Cloudy
3:13 AM 66.2 °F 64.4 °F 94% 29.97 in 10.0 mi SSE 6.9 mph - N/A   Scattered Clouds
3:31 AM 66.2 °F 64.4 °F 94% 29.97 in 10.0 mi SSE 5.8 mph - N/A   Scattered Clouds
3:58 AM 66.7 °F 63.9 °F 90% 29.96 in 10.0 mi SSE 5.8 mph - N/A   Partly Cloudy
4:43 AM 66.2 °F 64.4 °F 94% 29.96 in 7.0 mi SSE 5.8 mph - N/A   Overcast
4:52 AM 66.2 °F 62.6 °F 88% 29.96 in 10.0 mi SE 5.8 mph - N/A   Partly Cloudy
4:58 AM 66.4 °F 63.5 °F 90% 29.94 in 7.0 mi ESE 6.9 mph - N/A   Overcast
5:58 AM 66.0 °F 62.8 °F 89% 29.97 in 7.0 mi SE 5.8 mph - N/A   Overcast
6:58 AM 66.0 °F 62.8 °F 89% 29.99 in 10.0 mi ESE 5.8 mph - N/A   Overcast
7:40 AM 66.2 °F 62.6 °F 88% 30.01 in 10.0 mi SSE 4.6 mph - N/A   Overcast
7:54 AM 66.2 °F 62.6 °F 88% 30.00 in 4.0 mi SE 4.6 mph - N/A   Overcast
7:58 AM 66.0 °F 62.8 °F 89% 30.01 in 4.0 mi SE 5.8 mph - N/A   Overcast
8:02 AM 66.2 °F 62.6 °F 88% 30.01 in 2.0 mi SE 4.6 mph - N/A   Overcast
8:07 AM 66.2 °F 62.6 °F 88% 30.01 in 3.0 mi SE 4.6 mph - N/A   Overcast
8:18 AM 66.2 °F 62.6 °F 88% 30.01 in 4.0 mi ESE 4.6 mph - N/A   Overcast
8:40 AM 66.2 °F 64.4 °F 94% 30.02 in 3.0 mi ESE 4.6 mph - N/A   Light Drizzle
8:58 AM 65.8 °F 64.0 °F 94% 30.02 in 3.0 mi ESE 4.6 mph - N/A   Overcast
9:29 AM 66.2 °F 64.4 °F 94% 30.03 in 4.0 mi ESE 4.6 mph - N/A   Overcast
9:58 AM 68.0 °F 64.4 °F 88% 30.04 in 6.0 mi ESE 4.6 mph - N/A   Overcast
10:59 AM 69.8 °F 62.6 °F 78% 30.04 in 10.0 mi East 5.8 mph - N/A   Overcast
11:13 AM 69.8 °F 62.6 °F 78% 30.03 in 10.0 mi East 6.9 mph - N/A   Overcast
11:52 AM 71.6 °F 62.6 °F 73% 30.01 in 10.0 mi ESE 6.9 mph - N/A   Overcast
11:58 AM 70.9 °F 62.8 °F 75% 30.00 in 10.0 mi SE 9.2 mph - N/A   Overcast
12:58 PM 71.4 °F 63.0 °F 75% 29.98 in 10.0 mi SE 5.8 mph - N/A   Overcast
1:58 PM 71.1 °F 63.0 °F 75% 29.95 in 10.0 mi SE 6.9 mph - N/A   Overcast
2:36 PM 73.4 °F 62.6 °F 69% 29.92 in 10.0 mi SSE 4.6 mph - N/A   Mostly Cloudy
2:58 PM 75.2 °F 62.1 °F 64% 29.89 in 10.0 mi Variable 4.6 mph - N/A   Mostly Cloudy
3:58 PM 75.7 °F 62.4 °F 63% 29.88 in 10.0 mi South 8.1 mph - N/A   Mostly Cloudy
4:43 PM 75.2 °F 62.6 °F 65% 29.91 in 10.0 mi SSE 8.1 mph - N/A   Mostly Cloudy
4:59 PM 74.1 °F 63.7 °F 70% 29.90 in 10.0 mi SSE 8.1 mph - N/A   Mostly Cloudy
5:14 PM 73.4 °F 64.4 °F 73% 29.91 in 10.0 mi SE 10.4 mph - N/A   Mostly Cloudy
5:24 PM 73.4 °F 64.4 °F 73% 29.90 in 10.0 mi SE 10.4 mph - N/A   Mostly Cloudy
5:58 PM 71.4 °F 64.2 °F 78% 29.90 in 10.0 mi SE 10.4 mph - N/A   Mostly Cloudy
6:28 PM 68.0 °F 59.0 °F 73% 29.92 in 10.0 mi ENE 10.4 mph - N/A   Overcast
6:58 PM 64.4 °F 57.4 °F 78% 29.92 in 10.0 mi ENE 10.4 mph - N/A   Mostly Cloudy
7:48 PM 60.8 °F 55.4 °F 82% 29.96 in 10.0 mi ENE 10.4 mph - N/A   Overcast
7:58 PM 61.2 °F 55.0 °F 80% 29.95 in 10.0 mi ENE 8.1 mph - N/A   Overcast
8:18 PM 60.8 °F 55.4 °F 82% 29.97 in 10.0 mi NE 6.9 mph - N/A   Overcast
8:33 PM 60.8 °F 55.4 °F 82% 29.97 in 10.0 mi NE 8.1 mph - N/A   Overcast
8:43 PM 60.8 °F 55.4 °F 82% 29.98 in 10.0 mi NE 10.4 mph - N/A   Overcast
8:48 PM 60.8 °F 55.4 °F 82% 29.98 in 10.0 mi NE 10.4 mph - N/A   Overcast
8:58 PM 61.2 °F 55.9 °F 83% 29.97 in 10.0 mi NE 8.1 mph - N/A   Overcast
9:23 PM 60.8 °F 55.4 °F 82% 29.99 in 10.0 mi NNE 8.1 mph - N/A   Overcast
9:45 PM 59.0 °F 55.4 °F 88% 30.00 in 10.0 mi NNE 9.2 mph - N/A Rain Light Rain
9:55 PM 59.0 °F 53.6 °F 82% 30.00 in 10.0 mi NNE 12.7 mph - N/A Rain Light Rain
9:58 PM 58.1 °F 54.3 °F 87% 29.99 in 10.0 mi North 11.5 mph - 0.00 in Rain Light Rain
10:03 PM 57.2 °F 53.6 °F 88% 30.00 in 10.0 mi North 12.7 mph - N/A   Light Drizzle
10:04 PM 57.2 °F 53.6 °F 88% 30.00 in 10.0 mi NNE 10.4 mph - N/A   Overcast
10:07 PM 57.2 °F 53.6 °F 88% 30.00 in 10.0 mi NNE 13.8 mph - N/A   Light Drizzle
10:23 PM 57.2 °F 53.6 °F 88% 29.99 in 10.0 mi NE 10.4 mph - N/A   Light Drizzle
10:24 PM 57.2 °F 53.6 °F 88% 29.99 in 10.0 mi NE 10.4 mph - N/A   Overcast
10:58 PM 55.9 °F 52.7 °F 89% 29.99 in 10.0 mi NNE 10.4 mph - 0.00 in   Overcast
11:02 PM 55.4 °F 51.8 °F 88% 30.01 in 10.0 mi North 8.1 mph - N/A   Overcast
11:03 PM 55.4 °F 51.8 °F 88% 30.01 in 10.0 mi North 9.2 mph - N/A   Overcast
11:58 PM 54.0 °F 50.9 °F 89% 30.00 in 10.0 mi NNE 11.5 mph - N/A   Overcast